GW0416 Weather Reports


time (UTC)temp
C
wind
direction
speed
KPH
gust
KPH
rain 1hr
cm
rain 24hr
cm
rain mn
cm
humidity
%
barometer
mb
20260905144536 12 346 9.7 16.1 0.00 0.00 0.00 87 1020.1
20260905143036 11 319 9.7 22.5 0.00 0.00 0.00 87 1020.2
20260905141536 11 360 14.5 27.4 0.00 0.00 0.00 86 1019.6
20260905140036 11 295 16.1 30.6 0.00 0.00 0.00 84 1019.5
20260905134535 11 269 17.7 29.0 0.00 0.00 0.00 78 1020.8
20260905133038 12 248 14.5 25.7 0.00 0.00 0.00 76 1020.8
20260905131534 11 288 9.7 14.5 0.00 0.00 0.00 79 1019.2
20260905130034 10 284 14.5 17.7 0.00 0.00 0.00 79 1018.5
20260905124536 10 360 11.3 16.1 0.00 0.00 0.00 78 1018.7
20260905123035 11 292 3.2 8.0 0.00 0.00 0.00 76 1019.3
20260905121534 11 258 9.7 19.3 0.00 0.00 0.00 75 1019.6
20260905120036 11 270 14.5 22.5 0.00 0.00 0.00 74 1019.3
20260905114537 11 259 14.5 20.9 0.00 0.00 0.00 73 1018.9
20260905113038 11 280 11.3 19.3 0.00 0.00 0.00 72 1018.6
20260905111535 11 254 11.3 16.1 0.00 0.00 0.00 72 1018.5
20260905110037 11 259 9.7 16.1 0.00 0.00 0.00 73 1018.4
20260905104540 10 304 6.4 12.9 0.00 0.00 0.00 76 1017.6
20260905103036 10 292 6.4 14.5 0.00 0.00 0.00 75 1017.8
20260905101540 10 292 11.3 14.5 0.00 0.00 0.00 72 1017.8
20260905100108 11 288 12.9 17.7 0.00 0.00 0.00 71 1017.6
20260905094545 12 319 4.8 12.9 0.00 0.00 0.00 68 1017.7
20260905093036 12 330 3.2 8.0 0.00 0.00 0.00 65 1017.8
20260905091545 13 12 6.4 9.7 0.00 0.00 0.00 64 1017.3
20260905090035 13 0 0.0 6.4 0.00 0.00 0.00 66 1017.2
20260905084542 12 317 3.2 6.4 0.00 0.00 0.00 69 1017.1
20260905083044 12 32 6.4 12.9 0.00 0.00 0.00 69 1016.6
20260905081538 13 360 11.3 16.1 0.00 0.00 0.00 64 1016.5
20260905080033 13 305 8.0 12.9 0.00 0.00 0.00 64 1017.3
20260905074533 13 306 8.0 16.1 0.00 0.00 0.00 63 1017.6
20260905073039 12 258 6.4 16.1 0.00 0.00 0.00 65 1017.7
20260905071540 12 275 8.0 11.3 0.00 0.00 0.00 63 1017.7
20260905070036 13 342 8.0 12.9 0.00 0.00 0.00 62 1017.3
20260905064534 12 325 6.4 11.3 0.00 0.00 0.00 65 1017.4
20260905063036 12 294 4.8 9.7 0.00 0.00 0.00 67 1017.3
20260905061537 12 275 3.2 8.0 0.00 0.00 0.00 63 1017.3
20260905060043 12 309 6.4 11.3 0.00 0.00 0.00 64 1017.0
20260905054601 12 312 4.8 8.0 0.00 0.00 0.00 64 1016.6
20260905053033 12 15 8.0 14.5 0.00 0.00 0.00 61 1016.5
20260905051539 13 36 8.0 9.7 0.00 0.00 0.00 60 1016.7
20260905050036 13 346 3.2 9.7 0.00 0.00 0.00 59 1017.1
20260905044535 13 18 8.0 11.3 0.00 0.00 0.00 59 1016.5
20260905043038 13 20 4.8 8.0 0.00 0.00 0.00 59 1016.5
20260905041539 14 39 0.0 4.8 0.00 0.00 0.00 56 1017.0
20260905040040 14 39 4.8 12.9 0.00 0.00 0.00 56 1016.5
20260905034537 15 37 9.7 17.7 0.00 0.00 0.00 54 1015.6
20260905033040 16 22 14.5 22.5 0.00 0.00 0.00 51 1015.4
20260905031538 16 5 16.1 22.5 0.00 0.00 0.00 49 1015.5
20260905030038 16 5 16.1 22.5 0.00 0.00 0.00 48 1015.5
20260905024538 16 15 14.5 19.3 0.00 0.00 0.00 48 1015.2
20260905023036 17 350 14.5 20.9 0.00 0.00 0.00 46 1014.8
20260905021537 17 318 14.5 30.6 0.00 0.00 0.00 45 1014.8
20260905020038 17 346 22.5 35.4 0.00 0.00 0.00 44 1013.9
20260905014536 17 9 24.1 32.2 0.00 0.00 0.00 44 1013.4
20260905013039 18 22 22.5 33.8 0.00 0.00 0.00 43 1013.6
20260905011535 18 13 27.4 40.2 0.00 0.00 0.00 41 1013.2
20260905010040 19 360 33.8 43.5 0.00 0.00 0.00 40 1013.0
20260905004538 19 14 35.4 45.1 0.00 0.00 0.00 39 1013.0
20260905003036 19 11 32.2 40.2 0.00 0.00 0.00 39 1013.2
20260905001538 19 5 30.6 38.6 0.00 0.00 0.00 40 1013.3
20260905000036 20 5 27.4 35.4 0.00 0.00 0.00 39 1013.3
20260904234536 20 344 22.5 33.8 0.00 0.00 0.00 39 1013.4
20260904233037 20 342 14.5 32.2 0.00 0.00 0.00 38 1013.6
20260904231550 21 309 19.3 27.4 0.00 0.00 0.00 37 1013.3
20260904230037 21 18 17.7 35.4 0.00 0.00 0.00 36 1013.3
20260904224534 21 328 22.5 38.6 0.00 0.00 0.00 36 1013.0
20260904223034 22 292 20.9 33.8 0.00 0.00 0.00 36 1012.9
20260904221542 22 292 19.3 32.2 0.00 0.00 0.00 36 1012.7
20260904220036 22 290 22.5 37.0 0.00 0.00 0.00 37 1012.5
20260904214534 22 293 25.7 38.6 0.00 0.00 0.00 36 1012.4
20260904213038 22 292 27.4 40.2 0.00 0.00 0.00 36 1012.1
20260904211534 22 290 24.1 33.8 0.00 0.00 0.00 37 1011.7
20260904210037 22 292 27.4 46.7 0.00 0.00 0.00 36 1011.6
20260904204537 22 306 27.4 38.6 0.00 0.00 0.00 35 1011.4
20260904203049 22 293 22.5 30.6 0.00 0.00 0.00 35 1011.4
20260904201535 21 281 24.1 37.0 0.00 0.00 0.00 36 1011.0
20260904200056 22 306 14.5 29.0 0.00 0.00 0.00 37 1011.0
20260904194534 21 271 16.1 24.1 0.00 0.00 0.00 39 1010.9
20260904193037 20 277 16.1 27.4 0.00 0.00 0.00 41 1010.6
20260904191537 20 284 14.5 24.1 0.00 0.00 0.00 42 1010.3
20260904190038 19 262 11.3 20.9 0.00 0.00 0.00 43 1010.3
20260904184537 19 274 16.1 27.4 0.00 0.00 0.00 43 1010.2
20260904183041 18 277 14.5 22.5 0.00 0.00 0.00 44 1010.1
20260904181540 18 234 14.5 27.4 0.00 0.00 0.00 44 1009.9
20260904180042 18 246 14.5 25.7 0.00 0.00 0.00 43 1010.0
20260904174536 18 228 14.5 19.3 0.00 0.00 0.00 44 1010.0
20260904173053 18 254 6.4 12.9 0.00 0.00 0.00 45 1009.6
20260904171538 17 224 11.3 17.7 0.00 0.00 0.00 45 1009.7
20260904170038 17 244 12.9 22.5 0.00 0.00 0.00 47 1009.6
20260904164534 16 250 14.5 25.7 0.00 0.00 0.00 47 1009.6
20260904163035 17 227 17.7 25.7 0.00 0.00 0.00 46 1009.4
20260904161535 17 302 8.0 16.1 0.00 0.00 0.00 53 1009.1
20260904160045 16 289 6.4 11.3 0.00 0.00 0.00 52 1009.0
20260904154535 16 36 6.4 9.7 0.00 0.00 0.00 51 1008.4
20260904153034 16 40 8.0 11.3 0.00 0.00 0.00 51 1008.1
20260904151538 16 53 11.3 16.1 0.00 0.00 0.00 50 1007.9
20260904150034 16 54 9.7 14.5 0.00 0.00 0.00 53 1007.8